Iron Station, NC

9:33 AM EST on December 11, 2016 (GMT -0500)
Lincolnton-Lincoln County Regional

Weather History for KIPJ - June, 2012

Change the Weather History Date:

Tuesday, June 26, 2012

  Actual Average (KCLT) Record (KCLT)
Temperature  
Mean Temperature 71 °F -  
Max Temperature 80 °F 87 °F 102 °F (1952)
Min Temperature 60 °F 68 °F 55 °F (1979)
Cooling Degree Days 6    
Growing Degree Days 21 (Base 50)    
Moisture  
Dew Point 54 °F    
Average Humidity 58    
Maximum Humidity 100    
Minimum Humidity 32    
Precipitation  
Precipitation 0.00 in - - ()
Sea Level Pressure  
Sea Level Pressure 29.87 in    
Wind  
Wind Speed 4 mph (NE)    
Max Wind Speed 13 mph    
Max Gust Speed 18 mph    
Visibility 10 miles    
Events      
Averages and records for this station are not official NWS values.
T = Trace of Precipitation, MM = Missing Value Source: NWS Daily Summary

Daily Weather History Graph

Daily Weather History Graph

Search for Another Location

Airport or City:

Trip Planner

Search our weather history database for the weather conditions in past years. The results will help you decide how hot, cold, wet, or windy it might be!

Date:

Astronomy

Jun. 26, 2012 Rise Set
Actual Time 6:11 AM EDT 8:43 PM EDT
Civil Twilight 5:41 AM EDT 9:13 PM EDT
Nautical Twilight 5:04 AM EDT 9:50 PM EDT
Astronomical Twilight 4:23 AM EDT 10:32 PM EDT
Moon 1:09 PM EDT (6/26) 12:26 AM EDT (6/26)
Length of Visible Light 15h 32m
Length of Day
14h 32m
Waxing Crescent, 45% of the Moon is Illuminated
Jun 26
Waxing Crescent
Jun 26
First Quarter
Jul 3
Full
Jul 10
Last Quarter
Jul 19
New

Hourly Weather History & Observations

Time (EDT) Temp. Dew Point Humidity Pressure Visibility Wind Dir Wind Speed Gust Speed Precip Events Conditions
12:16 AM 71.6 °F 66.2 °F 83% 29.78 in 10.0 mi Calm Calm - N/A   Clear
12:36 AM 71.6 °F 64.4 °F 78% 29.78 in 10.0 mi Calm Calm - N/A   Clear
12:56 AM 68.0 °F 64.4 °F 88% 29.79 in 10.0 mi Calm Calm - N/A   Clear
1:16 AM 66.2 °F 66.2 °F 100% 29.80 in 7.0 mi Calm Calm - N/A   Clear
1:36 AM 66.2 °F 64.4 °F 94% 29.83 in 7.0 mi Calm Calm - N/A   Clear
1:56 AM 69.8 °F 62.6 °F 78% 29.83 in 10.0 mi ENE 5.8 mph - N/A   Clear
2:16 AM 69.8 °F 60.8 °F 73% 29.83 in 10.0 mi ENE 6.9 mph - N/A   Clear
2:36 AM 69.8 °F 59.0 °F 68% 29.84 in 10.0 mi NE 5.8 mph - N/A   Scattered Clouds
2:56 AM 69.8 °F 57.2 °F 64% 29.84 in 10.0 mi NE 3.5 mph - N/A   Scattered Clouds
3:16 AM 68.0 °F 57.2 °F 68% 29.85 in 10.0 mi NE 4.6 mph - N/A   Clear
3:36 AM 69.8 °F 57.2 °F 64% 29.85 in 10.0 mi NE 6.9 mph - N/A   Clear
3:56 AM 66.2 °F 57.2 °F 73% 29.85 in 10.0 mi NNE 5.8 mph - N/A   Clear
4:16 AM 68.0 °F 55.4 °F 64% 29.85 in 10.0 mi NNE 8.1 mph - N/A   Scattered Clouds
4:36 AM 66.2 °F 53.6 °F 64% 29.85 in 10.0 mi NNE 6.9 mph - N/A   Scattered Clouds
4:56 AM 66.2 °F 53.6 °F 64% 29.84 in 10.0 mi NNE 8.1 mph - N/A   Clear
5:16 AM 66.2 °F 53.6 °F 64% 29.84 in 10.0 mi North 6.9 mph - N/A   Scattered Clouds
5:36 AM 66.2 °F 53.6 °F 64% 29.85 in 10.0 mi NNE 5.8 mph - N/A   Scattered Clouds
5:56 AM 66.2 °F 53.6 °F 64% 29.86 in 10.0 mi North 5.8 mph - N/A   Clear
6:16 AM 64.4 °F 51.8 °F 64% 29.86 in 10.0 mi North 6.9 mph - N/A   Clear
6:36 AM 64.4 °F 51.8 °F 64% 29.87 in 10.0 mi North 6.9 mph - N/A   Clear
6:56 AM 64.4 °F 51.8 °F 64% 29.87 in 10.0 mi NNE 6.9 mph - N/A   Clear
7:16 AM 66.2 °F 51.8 °F 60% 29.88 in 10.0 mi NNE 5.8 mph - N/A   Clear
7:36 AM 66.2 °F 51.8 °F 60% 29.88 in 10.0 mi NNE 10.4 mph 16.1 mph N/A   Clear
7:56 AM 66.2 °F 51.8 °F 60% 29.89 in 10.0 mi ENE 5.8 mph - N/A   Clear
8:17 AM 69.8 °F 51.8 °F 53% 29.90 in 10.0 mi NNE 6.9 mph - N/A   Clear
8:36 AM 69.8 °F 51.8 °F 53% 29.91 in 10.0 mi NE 9.2 mph - N/A   Clear
8:56 AM 69.8 °F 51.8 °F 53% 29.91 in 10.0 mi ENE 4.6 mph - N/A   Clear
9:16 AM 71.6 °F 51.8 °F 50% 29.92 in 10.0 mi NNE 5.8 mph 9.2 mph N/A   Clear
9:36 AM 71.6 °F 51.8 °F 50% 29.92 in 10.0 mi NE 9.2 mph - N/A   Clear
9:58 AM 71.6 °F 51.8 °F 50% 29.92 in 10.0 mi NNE 9.2 mph - N/A   Clear
10:16 AM 73.4 °F 51.8 °F 47% 29.93 in 10.0 mi NNE 8.1 mph - N/A   Clear
10:36 AM 73.4 °F 53.6 °F 50% 29.92 in 10.0 mi NNE 9.2 mph - N/A   Clear
10:58 AM 73.4 °F 51.8 °F 47% 29.92 in 10.0 mi NE 12.7 mph - N/A   Clear
11:16 AM 73.4 °F 53.6 °F 50% 29.92 in 10.0 mi NE 10.4 mph - N/A   Clear
11:36 AM 75.2 °F 53.6 °F 47% 29.92 in 10.0 mi NNE 8.1 mph - N/A   Clear
11:56 AM 75.2 °F 53.6 °F 47% 29.91 in 10.0 mi NNE 8.1 mph - N/A   Clear
12:16 PM 75.2 °F 51.8 °F 44% 29.91 in 10.0 mi NE 6.9 mph - N/A   Clear
12:36 PM 75.2 °F 51.8 °F 44% 29.90 in 10.0 mi ENE 8.1 mph - N/A   Clear
12:56 PM 77.0 °F 50.0 °F 39% 29.90 in 10.0 mi ENE 9.2 mph - N/A   Clear
1:16 PM 78.8 °F 51.8 °F 39% 29.89 in 10.0 mi ENE 6.9 mph - N/A   Clear
1:36 PM 78.8 °F 51.8 °F 39% 29.89 in 10.0 mi North 5.8 mph - N/A   Clear
1:55 PM 78.8 °F 50.0 °F 36% 29.88 in 10.0 mi NNE 6.9 mph - N/A   Clear
2:16 PM 78.8 °F 48.2 °F 34% 29.88 in 10.0 mi NNE 10.4 mph 17.3 mph N/A   Clear
2:36 PM 80.6 °F 48.2 °F 32% - 10.0 mi North - - N/A   Clear
2:56 PM 78.8 °F 46.4 °F 32% 29.88 in - NE 8.1 mph 18.4 mph N/A   Clear
3:16 PM 78.8 °F 48.2 °F 34% 29.87 in 10.0 mi NNE 8.1 mph - N/A   Clear
3:35 PM 78.8 °F 50.0 °F 36% 29.87 in 10.0 mi East 6.9 mph - N/A   Clear
3:56 PM 80.6 °F 51.8 °F 37% 29.86 in 10.0 mi East 6.9 mph - N/A   Clear
4:16 PM 80.6 °F 50.0 °F 34% - - North - - N/A   Unknown
4:36 PM - - N/A% - - North - - N/A   Unknown
4:56 PM - - N/A% - - North - - N/A   Unknown
5:16 PM - - N/A% 29.85 in - North - - N/A   Unknown
5:36 PM - - N/A% 29.85 in - ENE 5.8 mph - N/A   Unknown
5:57 PM - - N/A% - - North - - N/A   Unknown
6:16 PM - - N/A% - - North - - N/A   Unknown
6:36 PM - - N/A% 29.86 in - ENE 4.6 mph - N/A   Unknown
6:55 PM - - N/A% 29.86 in - East 5.8 mph - N/A   Unknown
7:16 PM - - N/A% - - North - - N/A   Unknown
7:36 PM - - N/A% 29.86 in - East 4.6 mph - N/A   Unknown
7:56 PM 75.2 °F 53.6 °F 47% 29.86 in - Calm Calm - N/A   Unknown
8:16 PM - - N/A% - - North - - N/A   Unknown
8:36 PM - - N/A% 29.86 in - Calm Calm - N/A   Unknown
8:56 PM 66.2 °F 57.2 °F 73% 29.87 in - Calm Calm - N/A   Unknown
9:17 PM - - N/A% 29.87 in - Calm Calm - N/A   Unknown
9:36 PM - - N/A% 29.88 in - Calm Calm - N/A   Unknown
9:56 PM 62.6 °F 57.2 °F 82% 29.89 in - Calm Calm - N/A   Unknown
10:17 PM - - N/A% 29.90 in - Calm Calm - N/A   Unknown
10:36 PM - - N/A% 29.91 in - Calm Calm - N/A   Unknown
10:56 PM 60.8 °F 57.2 °F 88% 29.91 in - Calm Calm - N/A   Unknown
11:17 PM - - N/A% 29.91 in - North - - N/A   Unknown
11:36 PM - - N/A% 29.91 in - Calm Calm - N/A   Unknown
11:56 PM - - N/A% 29.92 in - Calm Calm - N/A   Unknown